Weather History for St. Francis, KS

Change the Weather History Date:

Saturday, June 22, 2013

  Actual Average Record
Temperature  
Mean Temperature 80 °F -  
Max Temperature 95 °F 88 °F 95 °F (2013)
Min Temperature 65 °F 57 °F 59 °F (2014)
Cooling Degree Days 14    
Growing Degree Days 30 (Base 50)    
Moisture  
Dew Point 56 °F    
Average Humidity 47    
Maximum Humidity 81    
Minimum Humidity 19    
Precipitation  
Precipitation 0.00 in - - ()
Sea Level Pressure  
Sea Level Pressure 29.78 in    
Wind  
Wind Speed 15 mph (ENE)    
Max Wind Speed 32 mph    
Max Gust Speed 39 mph    
Visibility 10 miles    
Events      
Averages and records for this station are not official NWS values.
T = Trace of Precipitation, MM = Missing Value Source: NWS Daily Summary

Daily Weather History Graph

Daily Weather History Graph

Search for Another Location

Airport:

Trip Planner

Search our weather history database for the weather conditions in past years. The results will help you decide how hot, cold, wet, or windy it might be!

Date:

Astronomy

Jun. 22, 2013 Rise Set
Actual Time 6:19 AM CDT 9:18 PM CDT
Civil Twilight 5:46 AM CDT 9:51 PM CDT
Nautical Twilight 5:05 AM CDT 10:33 PM CDT
Astronomical Twilight 4:17 AM CDT 11:21 PM CDT
Moon 8:35 PM CDT (6/22) 5:34 AM CDT (6/22)
Length of Visible Light 16h 04m
Length of Day
14h 59m
Waxing Gibbous, 99% of the Moon is Illuminated
Jun 22
Waxing Gibbous
Jun 23
Full
Jun 29
Last Quarter
Jul 8
New
Jul 15
First Quarter

Hourly Weather History & Observations

Time (CDT) Temp. Heat Index Dew Point Humidity Pressure Visibility Wind Dir Wind Speed Gust Speed Precip Events Conditions
12:15 AM 82.8 °F 83.3 °F 61.0 °F 48% 29.75 in 10.0 mi SSE 23.0 mph 33.4 mph N/A   Clear
12:35 AM 82.0 °F 82.7 °F 61.2 °F 49% 29.73 in 10.0 mi SSE 29.9 mph 36.8 mph N/A   Clear
12:55 AM 81.3 °F 82.1 °F 61.2 °F 50% 29.73 in 10.0 mi SSE 27.6 mph 35.7 mph N/A   Clear
1:15 AM 80.6 °F 81.6 °F 61.3 °F 52% 29.73 in 10.0 mi SSE 25.3 mph 38.0 mph N/A   Clear
1:35 AM 79.9 °F - 61.7 °F 54% 29.72 in 10.0 mi SSE 28.8 mph 38.0 mph N/A   Clear
1:55 AM 79.3 °F - 61.7 °F 55% 29.72 in 10.0 mi SSE 28.8 mph 39.1 mph N/A   Clear
2:15 AM 78.8 °F - 61.7 °F 56% 29.71 in 10.0 mi South 32.2 mph 39.1 mph N/A   Clear
2:35 AM 78.1 °F - 61.3 °F 56% 29.71 in 10.0 mi South 27.6 mph 36.8 mph N/A   Clear
2:55 AM 77.4 °F - 61.2 °F 57% 29.73 in 10.0 mi South 23.0 mph 35.7 mph N/A   Clear
3:15 AM 79.2 °F - 59.0 °F 50% 29.79 in 10.0 mi WSW 15.0 mph 31.1 mph N/A   Clear
3:35 AM 78.1 °F - 58.5 °F 51% 29.78 in 10.0 mi SW 8.1 mph 20.7 mph N/A   Clear
3:55 AM 75.2 °F - 58.1 °F 55% 29.77 in 10.0 mi South 9.2 mph - N/A   Clear
4:15 AM 73.4 °F - 55.4 °F 53% 29.78 in 10.0 mi WSW 4.6 mph - N/A   Clear
4:35 AM 70.2 °F - 55.9 °F 61% 29.77 in 10.0 mi Calm Calm - N/A   Clear
4:55 AM 68.9 °F - 59.0 °F 71% 29.77 in 10.0 mi NNE 9.2 mph - N/A   Clear
5:15 AM 68.0 °F - 60.1 °F 76% 29.78 in 10.0 mi NNE 10.4 mph - N/A   Clear
5:35 AM 67.8 °F - 60.3 °F 77% 29.78 in 10.0 mi NNE 9.2 mph - N/A   Clear
5:55 AM 67.3 °F - 59.7 °F 77% 29.79 in 10.0 mi NE 15.0 mph - N/A   Clear
6:15 AM 66.2 °F - 59.2 °F 78% 29.81 in 10.0 mi NE 15.0 mph 19.6 mph N/A   Clear
6:35 AM 65.7 °F - 59.0 °F 79% 29.81 in 10.0 mi ENE 18.4 mph 24.2 mph N/A   Clear
6:55 AM 65.5 °F - 59.0 °F 80% 29.82 in 10.0 mi ENE 16.1 mph 20.7 mph N/A   Clear
7:15 AM 65.7 °F - 59.5 °F 81% 29.83 in 10.0 mi ENE 11.5 mph - N/A   Clear
7:35 AM 66.4 °F - 60.3 °F 81% 29.85 in 10.0 mi NE 6.9 mph 17.3 mph N/A   Clear
7:55 AM 67.1 °F - 60.8 °F 80% 29.85 in 10.0 mi NE 12.7 mph 16.1 mph N/A   Clear
8:15 AM 68.4 °F - 60.8 °F 77% 29.84 in 10.0 mi NE 11.5 mph - N/A   Clear
8:35 AM 69.1 °F - 61.0 °F 75% 29.84 in 10.0 mi NE 12.7 mph - N/A   Clear
8:55 AM 70.7 °F - 61.5 °F 73% 29.85 in 10.0 mi NE 10.4 mph - N/A   Clear
9:15 AM 72.5 °F - 61.5 °F 68% 29.85 in 10.0 mi ENE 10.4 mph - N/A   Clear
9:35 AM 73.0 °F - 61.5 °F 67% 29.85 in 10.0 mi NE 9.2 mph - N/A   Clear
9:55 AM 74.3 °F - 61.5 °F 64% 29.85 in 10.0 mi NNE 10.4 mph - N/A   Clear
10:15 AM 75.9 °F - 61.5 °F 61% 29.86 in 10.0 mi NE 8.1 mph - N/A   Clear
10:35 AM 76.3 °F - 61.7 °F 60% 29.85 in 10.0 mi NNE 8.1 mph - N/A   Clear
10:55 AM 78.1 °F - 61.3 °F 56% 29.85 in 10.0 mi North 9.2 mph - N/A   Clear
11:15 AM 77.9 °F - 61.3 °F 57% 29.86 in 10.0 mi North 9.2 mph - N/A   Clear
11:35 AM 78.4 °F - 61.7 °F 56% 29.86 in 10.0 mi North 10.4 mph - N/A   Clear
11:55 AM 81.3 °F 82.1 °F 61.0 °F 50% 29.86 in 10.0 mi NNE 10.4 mph - N/A   Clear
12:15 PM 82.0 °F 82.5 °F 60.6 °F 48% 29.85 in 10.0 mi North 11.5 mph 16.1 mph N/A   Clear
12:35 PM 84.4 °F 84.6 °F 60.8 °F 45% 29.84 in 10.0 mi NNE 11.5 mph 17.3 mph N/A   Clear
12:55 PM 84.2 °F 83.8 °F 59.0 °F 42% 29.85 in 10.0 mi NNE 9.2 mph 18.4 mph N/A   Clear
1:15 PM 85.6 °F 84.8 °F 58.3 °F 39% 29.84 in 10.0 mi NNE 9.2 mph 18.4 mph N/A   Clear
1:35 PM 87.3 °F 86.1 °F 57.6 °F 36% 29.83 in 10.0 mi NE 12.7 mph 17.3 mph N/A   Clear
1:55 PM 88.3 °F 86.7 °F 55.8 °F 33% 29.82 in 10.0 mi NE 5.8 mph 17.3 mph N/A   Clear
2:15 PM 89.1 °F 86.9 °F 53.4 °F 30% 29.82 in 10.0 mi ENE 4.6 mph - N/A   Clear
2:35 PM 90.3 °F - 52.9 °F 28% 29.81 in 10.0 mi NE 6.9 mph - N/A   Clear
2:55 PM 89.6 °F 87.5 °F 54.3 °F 30% 29.81 in 10.0 mi North 5.8 mph - N/A   Clear
3:15 PM 92.3 °F 89.7 °F 53.2 °F 26% 29.80 in 10.0 mi NE 9.2 mph - N/A   Clear
3:35 PM 91.4 °F - 52.7 °F 27% 29.79 in 10.0 mi North 4.6 mph - N/A   Clear
3:55 PM 92.7 °F - 51.1 °F 24% 29.78 in 10.0 mi NNE 5.8 mph - N/A   Clear
4:15 PM 93.2 °F - 50.2 °F 23% 29.77 in 10.0 mi ESE 5.8 mph - N/A   Clear
4:35 PM 92.5 °F - 49.1 °F 23% 29.76 in 10.0 mi SSE 3.5 mph - N/A   Clear
4:55 PM 92.1 °F - 48.4 °F 22% 29.76 in 10.0 mi Calm Calm - N/A   Clear
5:15 PM 93.9 °F - 47.8 °F 21% 29.75 in 10.0 mi North 3.5 mph - N/A   Clear
5:35 PM 93.7 °F - 47.5 °F 20% 29.74 in 10.0 mi Calm Calm - N/A   Clear
5:55 PM 92.8 °F - 47.5 °F 21% 29.72 in 10.0 mi ESE 4.6 mph - N/A   Clear
6:15 PM 94.8 °F - 48.6 °F 21% 29.71 in 10.0 mi South 6.9 mph - N/A   Clear
6:35 PM 94.5 °F - 47.3 °F 20% 29.70 in 10.0 mi South 11.5 mph - N/A   Clear
6:55 PM 94.3 °F - 46.8 °F 20% 29.69 in 10.0 mi South 12.7 mph - N/A   Clear
7:15 PM 93.6 °F - 49.8 °F 22% 29.70 in 10.0 mi SSE 11.5 mph 16.1 mph N/A   Clear
7:35 PM 93.4 °F - 45.0 °F 19% 29.69 in 10.0 mi SSW 9.2 mph - N/A   Clear
7:55 PM 91.6 °F - 45.9 °F 21% 29.71 in 10.0 mi SSW 6.9 mph - N/A   Clear
8:15 PM 87.8 °F - 48.4 °F 26% 29.71 in 10.0 mi South 9.2 mph - N/A   Clear
8:35 PM 86.0 °F - 49.5 °F 28% 29.72 in 10.0 mi South 8.1 mph - N/A   Clear
8:55 PM 85.1 °F - 49.8 °F 29% 29.72 in 10.0 mi South 5.8 mph - N/A   Clear
9:15 PM 81.0 °F 80.4 °F 53.4 °F 38% 29.73 in 10.0 mi SE 3.5 mph - N/A   Clear
9:35 PM 79.7 °F - 52.9 °F 39% 29.73 in 10.0 mi SE 6.9 mph - N/A   Clear
9:55 PM 81.1 °F 80.7 °F 54.0 °F 39% 29.76 in 10.0 mi NW 13.8 mph - N/A   Clear
10:15 PM 80.6 °F 80.8 °F 57.2 °F 45% 29.77 in 10.0 mi North 11.5 mph 23.0 mph N/A   Clear
10:35 PM 78.6 °F - 58.8 °F 50% 29.77 in 10.0 mi North 18.4 mph 24.2 mph N/A   Scattered Clouds
10:55 PM 75.4 °F - 47.8 °F 38% 29.79 in 10.0 mi NNE 16.1 mph 24.2 mph N/A   Scattered Clouds
11:15 PM 74.5 °F - 45.9 °F 36% 29.78 in 10.0 mi NNE 12.7 mph - N/A   Mostly Cloudy
11:35 PM 73.0 °F - 46.2 °F 38% 29.77 in 10.0 mi NE 8.1 mph - N/A   Scattered Clouds
11:55 PM 72.1 °F - 46.8 °F 40% 29.77 in 10.0 mi NNE 8.1 mph - N/A   Clear